Weather in 'Amran

Yemen     15°39′36″N   43°56′44″E
temp.,
°C
wind,
m/s
gust,
m/s
humid.,
%
clouds,
%
prec.,
mm/h
press.,
hPa
HPBL,
m
25 february, thu
thu2500:00+14wnw22790 0.1 1015193
03:00+13w22830 0.1 1014182
06:00+12wsw11880 0.0 101574
09:00+16wsw12500 0.0 1016401
12:00+20wsw23380 0.0 10141799
15:00+19wnw54530 0.4 10111066
18:00+16nnw116922 1.8 1012377
21:00+17ene235711 2.3 1015551
26 february, fri
fri2600:00+16e24590 0.4 1015424
03:00+14e23680 0.4 1014185
06:00+12ese23590 0.0 1016115
09:00+15se45420 0.0 1017450
12:00+20sse45300 0.0 10141723
15:00+20wnw54410 0.0 10111349
18:00+17nnw44590 0.0 1013722
21:00+16ese34460 0.0 1015514
27 february, sat
sat2700:00+14ese22510 0.0 1015138
03:00+13se12560 0.0 101432
06:00+12se22610 0.0 101524
09:00+16sse22440 0.0 1016420
12:00+21wsw44230 0.0 10141915
15:00+20w44350 0.0 10101714
18:00+18w33540 0.2 1011908
21:00+17e12490 0.5 1014595
28 february, sun
sun2800:00+16se11510 0.1 101324
03:00+14w11590 0.1 101224
06:00+13wsw11740 0.0 101323
09:00+16sw24370 0.0 1015656
12:00+20wsw45370 0.0 10121380
15:00+20w55450 0.4 10101530
18:00+17w44540 0.3 1011724
21:00+16wsw12630 0.3 1014332
1 march, mon
mon100:00+15wsw22670 0.0 1014107
03:00+13w237830 0.0 1013133
06:00+12sw236142 0.0 101451
09:00+15wsw344361 0.0 1016565
12:00+19w333399 0.0 10141515
15:00+19wnw544298 0.0 10111397
18:00+16wnw3267100 0.3 1013384
21:00+16nw116380 0.5 1015170